RYR6566 LEPA-LEAL

Flight info

Callsign RYR6566
Flight time 0h 48m
Altitude 23000
Route BAVER M603 GERVU
Aircraft B738/M-SDE2E3FGHIRWXY/LB1

Departure

Time 2026-05-01 11:09
Airport Palma de Mallorca Airport (LEPA)

Arrival

Time 2026-05-01 11:58
Airport Alicante-Elche Miguel Hernández Airport (LEAL)
Time Latitude Longitude Altitude Speed Heading
2026-05-01 10:42 39.55150 2.72668 21 ft 0 kts 193°
2026-05-01 10:58 39.55152 2.72668 21 ft 2 kts 192°
2026-05-01 10:58 39.55174 2.72670 22 ft 4 kts 144°
2026-05-01 10:59 39.55181 2.72648 24 ft 4 kts 70°
2026-05-01 10:59 39.55177 2.72634 23 ft 0 kts 60°
2026-05-01 11:02 39.55177 2.72635 23 ft 1 kts 60°
2026-05-01 11:02 39.55205 2.72698 22 ft 11 kts 60°
2026-05-01 11:02 39.55244 2.72785 22 ft 11 kts 60°
2026-05-01 11:03 39.55301 2.72904 20 ft 20 kts 57°
2026-05-01 11:03 39.55362 2.72983 20 ft 11 kts
2026-05-01 11:03 39.55429 2.73028 19 ft 16 kts 61°
2026-05-01 11:03 39.55493 2.73163 19 ft 18 kts 57°
2026-05-01 11:04 39.55554 2.73298 19 ft 17 kts 59°
2026-05-01 11:04 39.55613 2.73427 18 ft 14 kts 59°
2026-05-01 11:04 39.55598 2.73518 18 ft 11 kts 149°
2026-05-01 11:04 39.55531 2.73570 19 ft 11 kts 149°
2026-05-01 11:05 39.55465 2.73622 19 ft 11 kts 149°
2026-05-01 11:05 39.55396 2.73676 20 ft 18 kts 149°
2026-05-01 11:05 39.55267 2.73777 22 ft 22 kts 149°
2026-05-01 11:05 39.55141 2.73877 24 ft 21 kts 146°
2026-05-01 11:06 39.55018 2.73976 26 ft 21 kts 149°
2026-05-01 11:06 39.54898 2.74070 27 ft 19 kts 148°
2026-05-01 11:06 39.54799 2.74125 28 ft 14 kts 193°
2026-05-01 11:07 39.54694 2.73927 29 ft 13 kts 238°
2026-05-01 11:07 39.54647 2.73829 30 ft 13 kts 238°
2026-05-01 11:07 39.54602 2.73733 31 ft 12 kts 238°
2026-05-01 11:07 39.54556 2.73669 31 ft 9 kts 180°
2026-05-01 11:08 39.54505 2.73711 31 ft 9 kts 147°
2026-05-01 11:08 39.54452 2.73750 30 ft 9 kts 150°
2026-05-01 11:08 39.54463 2.73890 29 ft 22 kts 57°
2026-05-01 11:09 39.54690 2.74367 30 ft 101 kts 58°
2026-05-01 11:09 39.55177 2.75403 92 ft 161 kts 59°
2026-05-01 11:09 39.55782 2.76665 1011 ft 164 kts 59°
2026-05-01 11:10 39.57036 2.79386 2588 ft 197 kts 59°
2026-05-01 11:10 39.57769 2.80948 3278 ft 211 kts 59°
2026-05-01 11:10 39.58557 2.82641 3817 ft 224 kts 59°
2026-05-01 11:10 39.59362 2.84411 4479 ft 232 kts 60°
2026-05-01 11:11 39.60182 2.86264 5089 ft 242 kts 60°
2026-05-01 11:11 39.61268 2.87972 5630 ft 252 kts 33°
2026-05-01 11:11 39.62939 2.88640 6243 ft 258 kts 359°
2026-05-01 11:11 39.64643 2.88028 6993 ft 253 kts 327°
2026-05-01 11:12 39.65865 2.86409 7613 ft 256 kts 295°
2026-05-01 11:12 39.66376 2.84208 8309 ft 255 kts 285°
2026-05-01 11:12 39.66951 2.82014 8987 ft 260 kts 288°
2026-05-01 11:12 39.67625 2.79734 9413 ft 279 kts 289°
2026-05-01 11:13 39.68352 2.77384 10259 ft 285 kts 290°
2026-05-01 11:13 39.69119 2.74952 10867 ft 302 kts 290°
2026-05-01 11:13 39.69960 2.72319 11138 ft 326 kts 290°
2026-05-01 11:13 39.70845 2.69567 11861 ft 333 kts 290°
2026-05-01 11:14 39.71745 2.66780 12719 ft 335 kts 290°
2026-05-01 11:14 39.72653 2.63975 13576 ft 339 kts 290°
2026-05-01 11:14 39.73575 2.61130 14378 ft 342 kts 290°
2026-05-01 11:14 39.74493 2.58297 15166 ft 345 kts 290°
2026-05-01 11:15 39.75427 2.55411 15948 ft 348 kts 290°
2026-05-01 11:15 39.76367 2.52500 16707 ft 351 kts 290°
2026-05-01 11:15 39.77316 2.49562 17465 ft 354 kts 291°
2026-05-01 11:15 39.78267 2.46614 18414 ft 351 kts 291°
2026-05-01 11:16 39.79205 2.43705 19323 ft 346 kts 290°
2026-05-01 11:16 39.80132 2.40827 20161 ft 343 kts 290°
2026-05-01 11:16 39.81052 2.37963 20952 ft 342 kts 290°
2026-05-01 11:16 39.81758 2.35076 21731 ft 337 kts 275°
2026-05-01 11:17 39.81694 2.32068 22561 ft 332 kts 259°
2026-05-01 11:17 39.80983 2.29212 23010 ft 332 kts 242°
2026-05-01 11:17 39.79742 2.26662 23177 ft 336 kts 236°
2026-05-01 11:17 39.78375 2.24202 23188 ft 334 kts 234°
2026-05-01 11:18 39.76981 2.21786 23179 ft 333 kts 234°
2026-05-01 11:18 39.75589 2.19385 23187 ft 332 kts 234°
2026-05-01 11:18 39.74205 2.16986 23194 ft 332 kts 234°
2026-05-01 11:18 39.72829 2.14583 23194 ft 332 kts 234°
2026-05-01 11:19 39.71453 2.12171 23194 ft 332 kts 235°
2026-05-01 11:19 39.70080 2.09755 23192 ft 332 kts 235°
2026-05-01 11:19 39.68707 2.07331 23197 ft 333 kts 235°
2026-05-01 11:19 39.67350 2.04936 23194 ft 333 kts 235°
2026-05-01 11:20 39.65976 2.02510 23196 ft 334 kts 235°
2026-05-01 11:20 39.64597 2.00074 23196 ft 334 kts 235°
2026-05-01 11:20 39.63215 1.97634 23197 ft 335 kts 235°
2026-05-01 11:20 39.61830 1.95189 23196 ft 335 kts 234°
2026-05-01 11:21 39.60445 1.92748 23191 ft 336 kts 234°
2026-05-01 11:21 39.59079 1.90339 23188 ft 336 kts 234°
2026-05-01 11:21 39.57688 1.87891 23192 ft 336 kts 234°
2026-05-01 11:21 39.56299 1.85447 23190 ft 336 kts 234°
2026-05-01 11:22 39.54911 1.83006 23189 ft 336 kts 234°
2026-05-01 11:22 39.53531 1.80581 23188 ft 336 kts 234°
2026-05-01 11:22 39.52137 1.78134 23192 ft 336 kts 234°
2026-05-01 11:22 39.50746 1.75694 23191 ft 336 kts 234°
2026-05-01 11:23 39.49352 1.73250 23186 ft 336 kts 234°
2026-05-01 11:23 39.47975 1.70839 23191 ft 336 kts 234°
2026-05-01 11:23 39.46583 1.68402 23189 ft 336 kts 234°
2026-05-01 11:23 39.45194 1.65973 23181 ft 336 kts 234°
2026-05-01 11:24 39.43801 1.63538 23184 ft 336 kts 234°
2026-05-01 11:24 39.42426 1.61136 23189 ft 335 kts 234°
2026-05-01 11:24 39.39641 1.56279 23187 ft 335 kts 234°
2026-05-01 11:25 39.38247 1.53850 23190 ft 336 kts 234°
2026-05-01 11:25 39.35479 1.49033 23192 ft 336 kts 234°
2026-05-01 11:25 39.34081 1.46603 23191 ft 336 kts 234°
2026-05-01 11:26 39.32682 1.44173 23189 ft 336 kts 234°
2026-05-01 11:26 39.29900 1.39345 23187 ft 336 kts 233°
2026-05-01 11:26 39.28498 1.36915 23190 ft 337 kts 233°
2026-05-01 11:27 39.27091 1.34479 23188 ft 337 kts 233°
2026-05-01 11:27 39.25704 1.32078 23188 ft 337 kts 233°
2026-05-01 11:27 39.24299 1.29649 23190 ft 337 kts 233°
2026-05-01 11:27 39.22892 1.27218 23188 ft 337 kts 233°
2026-05-01 11:28 39.21488 1.24794 23187 ft 337 kts 233°
2026-05-01 11:28 39.20082 1.22368 23186 ft 337 kts 233°
2026-05-01 11:28 39.18696 1.19978 23191 ft 337 kts 233°
2026-05-01 11:29 39.15883 1.15135 23191 ft 337 kts 233°
2026-05-01 11:29 39.14474 1.12710 23189 ft 337 kts 233°
2026-05-01 11:29 39.11656 1.07869 23193 ft 337 kts 233°
2026-05-01 11:30 39.10245 1.05448 23196 ft 337 kts 233°
2026-05-01 11:30 39.08834 1.03028 23191 ft 337 kts 233°
2026-05-01 11:30 39.07441 1.00641 23196 ft 337 kts 233°
2026-05-01 11:30 39.06026 0.98217 23195 ft 338 kts 233°
2026-05-01 11:31 39.04604 0.95784 23194 ft 338 kts 233°
2026-05-01 11:31 39.03212 0.93404 23198 ft 338 kts 233°
2026-05-01 11:31 39.01800 0.90991 23198 ft 338 kts 233°
2026-05-01 11:31 39.00383 0.88571 23194 ft 338 kts 233°
2026-05-01 11:32 38.98965 0.86152 23194 ft 338 kts 233°
2026-05-01 11:32 38.97548 0.83736 23195 ft 338 kts 233°
2026-05-01 11:32 38.96133 0.81325 23199 ft 338 kts 233°
2026-05-01 11:32 38.94716 0.78913 23196 ft 337 kts 233°
2026-05-01 11:33 38.93316 0.76531 23197 ft 337 kts 233°
2026-05-01 11:33 38.91896 0.74115 23193 ft 338 kts 233°
2026-05-01 11:33 38.90475 0.71703 23195 ft 338 kts 233°
2026-05-01 11:33 38.89060 0.69302 23196 ft 338 kts 234°
2026-05-01 11:34 38.87798 0.66802 23191 ft 337 kts 242°
2026-05-01 11:34 38.86859 0.64039 23199 ft 337 kts 248°
2026-05-01 11:34 38.86003 0.61234 23199 ft 338 kts 249°
2026-05-01 11:34 38.85149 0.58424 23198 ft 338 kts 248°
2026-05-01 11:35 38.84285 0.55615 23198 ft 338 kts 248°
2026-05-01 11:35 38.83413 0.52811 23201 ft 339 kts 248°
2026-05-01 11:35 38.82543 0.50035 23197 ft 339 kts 248°
2026-05-01 11:35 38.81706 0.47206 23201 ft 339 kts 251°
2026-05-01 11:36 38.81034 0.44292 23201 ft 339 kts 254°
2026-05-01 11:36 38.80440 0.41393 23189 ft 332 kts 255°
2026-05-01 11:36 38.79872 0.38545 23193 ft 328 kts 255°
2026-05-01 11:36 38.79310 0.35748 23199 ft 328 kts 255°
2026-05-01 11:37 38.78732 0.32909 23198 ft 329 kts 255°
2026-05-01 11:37 38.78143 0.30059 22936 ft 329 kts 254°
2026-05-01 11:37 38.77554 0.27232 22648 ft 326 kts 254°
2026-05-01 11:37 38.76972 0.24460 22335 ft 323 kts 254°
2026-05-01 11:38 38.76387 0.21684 21976 ft 321 kts 254°
2026-05-01 11:38 38.75805 0.18934 21631 ft 319 kts 254°
2026-05-01 11:38 38.75226 0.16200 21289 ft 316 kts 254°
2026-05-01 11:38 38.74648 0.13481 20943 ft 315 kts 254°
2026-05-01 11:39 38.74081 0.10816 20619 ft 313 kts 254°
2026-05-01 11:39 38.73508 0.08129 20279 ft 311 kts 254°
2026-05-01 11:39 38.72939 0.05458 19948 ft 310 kts 254°
2026-05-01 11:39 38.72368 0.02785 19433 ft 314 kts 254°
2026-05-01 11:40 38.71789 0.00083 18926 ft 318 kts 255°
2026-05-01 11:40 38.71201 -0.02661 18515 ft 319 kts 254°
2026-05-01 11:40 38.70614 -0.05399 18115 ft 318 kts 255°
2026-05-01 11:40 38.70160 -0.07515 17840 ft 316 kts 254°
2026-05-01 11:41 38.69645 -0.09916 17525 ft 314 kts 255°
2026-05-01 11:41 38.69067 -0.12605 17199 ft 311 kts 255°
2026-05-01 11:41 38.68493 -0.15268 16877 ft 309 kts 254°
2026-05-01 11:41 38.67921 -0.17921 16543 ft 308 kts 254°
2026-05-01 11:42 38.67352 -0.20556 16211 ft 305 kts 254°
2026-05-01 11:42 38.66789 -0.23165 15906 ft 303 kts 254°
2026-05-01 11:42 38.66226 -0.25763 15607 ft 302 kts 254°
2026-05-01 11:42 38.65670 -0.28334 15271 ft 303 kts 254°
2026-05-01 11:43 38.65108 -0.30927 14952 ft 301 kts 254°
2026-05-01 11:43 38.64547 -0.33513 14629 ft 300 kts 254°
2026-05-01 11:43 38.63989 -0.36078 14319 ft 299 kts 254°
2026-05-01 11:44 38.62883 -0.41155 13659 ft 296 kts 253°
2026-05-01 11:44 38.62331 -0.43685 13375 ft 292 kts 253°
2026-05-01 11:44 38.61784 -0.46188 13039 ft 290 kts 253°
2026-05-01 11:44 38.61247 -0.48641 12737 ft 288 kts 253°
2026-05-01 11:45 38.60707 -0.51108 12427 ft 286 kts 254°
2026-05-01 11:45 38.60172 -0.53551 12130 ft 285 kts 253°
2026-05-01 11:45 38.59638 -0.55986 11822 ft 283 kts 254°
2026-05-01 11:45 38.59106 -0.58408 11512 ft 283 kts 254°
2026-05-01 11:46 38.58573 -0.60834 11201 ft 282 kts 253°
2026-05-01 11:46 38.58048 -0.63223 10898 ft 281 kts 253°
2026-05-01 11:46 38.57519 -0.65624 10597 ft 280 kts 253°
2026-05-01 11:46 38.56992 -0.68014 10332 ft 277 kts 253°
2026-05-01 11:47 38.56479 -0.70343 10193 ft 268 kts 253°
2026-05-01 11:47 38.55978 -0.72614 9874 ft 268 kts 253°
2026-05-01 11:47 38.55474 -0.74896 9721 ft 261 kts 253°
2026-05-01 11:47 38.54985 -0.77106 9599 ft 254 kts 253°
2026-05-01 11:48 38.54509 -0.79254 9481 ft 249 kts 253°
2026-05-01 11:48 38.54046 -0.81337 9353 ft 243 kts 253°
2026-05-01 11:48 38.53376 -0.83295 9104 ft 240 kts 234°
2026-05-01 11:48 38.52268 -0.84875 8875 ft 237 kts 223°
2026-05-01 11:49 38.51022 -0.86257 8635 ft 236 kts 221°
2026-05-01 11:49 38.49806 -0.87631 8388 ft 235 kts 222°
2026-05-01 11:49 38.48575 -0.89009 8148 ft 234 kts 220°
2026-05-01 11:49 38.47309 -0.90328 7902 ft 234 kts 218°
2026-05-01 11:50 38.46006 -0.91576 7648 ft 234 kts 216°
2026-05-01 11:50 38.44687 -0.92750 7411 ft 233 kts 213°
2026-05-01 11:50 38.43315 -0.93841 7164 ft 232 kts 210°
2026-05-01 11:50 38.41898 -0.94838 6922 ft 232 kts 207°
2026-05-01 11:51 38.40433 -0.95710 6681 ft 232 kts 203°
2026-05-01 11:51 38.38958 -0.96484 6425 ft 231 kts 201°
2026-05-01 11:51 38.37458 -0.97225 6183 ft 230 kts 201°
2026-05-01 11:51 38.35906 -0.97667 5844 ft 232 kts 174°
2026-05-01 11:52 38.34459 -0.96867 5648 ft 227 kts 137°
2026-05-01 11:52 38.33641 -0.95198 5493 ft 221 kts 107°
2026-05-01 11:52 38.33313 -0.93281 5255 ft 221 kts 99°
2026-05-01 11:52 38.33067 -0.91341 5026 ft 222 kts 99°
2026-05-01 11:53 38.32819 -0.89400 4770 ft 223 kts 99°
2026-05-01 11:53 38.32561 -0.87457 4521 ft 222 kts 99°
2026-05-01 11:53 38.32309 -0.85544 4291 ft 221 kts 99°
2026-05-01 11:53 38.32051 -0.83606 4055 ft 221 kts 99°
2026-05-01 11:54 38.31790 -0.81678 3812 ft 221 kts 99°
2026-05-01 11:54 38.31545 -0.79752 3572 ft 220 kts 99°
2026-05-01 11:54 38.31299 -0.77829 3298 ft 221 kts 99°
2026-05-01 11:54 38.31031 -0.75892 3006 ft 223 kts 100°
2026-05-01 11:55 38.30756 -0.73941 2718 ft 224 kts 100°
2026-05-01 11:55 38.30230 -0.70206 2155 ft 219 kts 100°
2026-05-01 11:55 38.29969 -0.68346 1867 ft 207 kts 100°
2026-05-01 11:56 38.29723 -0.66591 1596 ft 196 kts 100°
2026-05-01 11:56 38.29491 -0.64933 1335 ft 186 kts 100°
2026-05-01 11:56 38.29270 -0.63354 1094 ft 177 kts 101°
2026-05-01 11:56 38.29060 -0.61860 882 ft 165 kts 100°
2026-05-01 11:57 38.28870 -0.60498 687 ft 146 kts 99°
2026-05-01 11:57 38.28701 -0.59283 508 ft 137 kts 97°
2026-05-01 11:57 38.28531 -0.58103 324 ft 133 kts 98°
2026-05-01 11:57 38.28375 -0.56933 146 ft 132 kts 97°
2026-05-01 11:58 38.28231 -0.55912 105 ft 93 kts 100°
2026-05-01 11:58 38.28156 -0.55375 88 ft 36 kts 100°
2026-05-01 11:58 38.28168 -0.54813 63 ft 28 kts 72°
2026-05-01 11:59 38.28238 -0.54720 66 ft 8 kts 308°
2026-05-01 11:59 38.28253 -0.54798 69 ft 14 kts 280°
2026-05-01 11:59 38.28276 -0.54967 73 ft 21 kts 279°
2026-05-01 12:00 38.28341 -0.55216 89 ft 12 kts 358°
2026-05-01 12:00 38.28400 -0.55140 84 ft 13 kts 57°
2026-05-01 12:00 38.28495 -0.54974 83 ft 13 kts 10°
2026-05-01 12:01 38.28546 -0.54997 86 ft 8 kts 295°
2026-05-01 12:01 38.28571 -0.55048 88 ft 3 kts 304°
2026-05-01 12:01 38.28575 -0.55056 86 ft 0 kts 304°